Regional Weather Roundup
Issued by NWS Charleston, SC

Current Version | Previous Version | Graphics & Text | Print | Product List | Glossary On
Versions: 1 2 3 4 5 6 7 8 9 10 11 12 13 14 15 16 17 18 19 20 21 22 23 24 25 26 27 28 29 30 31 32 33 34 35 36 37 38 39 40 41 42 43 44 45 46 47 48 49 50
000
ASUS42 KCHS 241610
RWRCHS
REGIONAL WEATHER ROUNDUP
NATIONAL WEATHER SERVICE CHARLESTON SC
1200 PM EDT THU JUL 24 2014

NOTE: "FAIR" INDICATES FEW OR NO CLOUDS BELOW 12,000 FEET WITH NO
SIGNIFICANT WEATHER AND/OR OBSTRUCTIONS TO VISIBILITY.

NOT ALL STATIONS ARE QUALITY CONTROLLED BY THE NATIONAL
WEATHER SERVICE. USE DATA WITH CAUTION...ESPECIALLY
DEWPOINT OBSERVATIONS.

SCZ027-030-031-034>040-042>050-241700-
...SOUTH CAROLINA...

CITY           SKY/WX    TMP DP  RH WIND       PRES   REMARKS
N CHARLESTON   MOSUNNY   91  73  55 W10       29.97F HX  99
WATERFRONT PRK   N/A     90 N/A N/A SW8G14      N/A
FORT JOHNSON   NOT AVBL
MOUNT PLEASANT FAIR      90  73  58 W13       29.97S HX  98
JOHNS ISLAND   MOSUNNY   90  64  43 SW7G16    29.98S HX  91
PINOPOLIS        N/A     90  73  58 SW9       29.89F HX  98
MONCKS CORNER    N/A     91  77  62 SW8       29.96F HX 105
SUMMERVILLE    FAIR      90  73  58 W8        29.97F HX  98
BEAUFORT MCAS  MOSUNNY   89  73  59 NW9       29.98F HX  97
BEAUFORT ARPT  FAIR      88  75  66 SW8       29.98S HX  97
HILTON HEAD IS SUNNY     88  72  58 S10       30.00F HX  94
GEORGETOWN     NOT AVBL
WALTERBORO     MOSUNNY   91  68  46 W10       29.98S HX  95
ORANGEBURG     MOSUNNY   89  71  55 SW12      29.96F HX  95
BARNWELL       FAIR      90  72  55 SW9G17    29.98S HX  96
AIKEN          PTSUNNY   88  73  62 W9G16     30.01S HX  96
MANNING        FAIR      90  75  62 W10G16    29.95F HX 100
KINGSTREE      NOT AVBL
COLUMBIA       MOSUNNY   93  69  45 W14G22    29.94F HX  98
SUMTER         SUNNY     89  74  61 SW16      29.93S HX  99
FLORENCE       MOSUNNY   91  73  55 SW14G21   29.92F HX  99
MYRTLE BEACH   MOSUNNY   91  73  55 W14G20    29.94F HX 100
N MYRTLE BEACH MOSUNNY   90  73  57 SW10      29.93F HX  98

$$

GAZ063-065-086>088-099>101-113>116-118-119-134-136>141-150-241700-
...GEORGIA...

CITY           SKY/WX    TMP DP  RH WIND       PRES   REMARKS
SAVANNAH ARPT  PTSUNNY   89  72  56 W9        30.00F HX  96
HUNTER AAF     MOSUNNY   89  75  63 W7        29.99S HX  98
FORT STEWART   MOSUNNY   88  73  60 W9        29.99F HX  95
STATESBORO     NOT AVBL
SYLVANIA       MOSUNNY   87  78  72 W7        30.00F HX 100
CLAXTON        FAIR      90  75  62 W6        30.00F HX 100
THOMSON        SUNNY     90  77  65 W10       30.03S HX 102
AUGUSTA-BUSH   PTSUNNY   90  70  51 W10G17    29.96F HX  95
AUGUSTA-DANIEL MOSUNNY   89  71  55 VRB7      29.98F HX  95
SWAINSBORO     PTSUNNY   90  73  58 W6        30.01S HX  98
VIDALIA          N/A     88  73  62 SW12      30.01F HX  96
ALMA           MOSUNNY   89  69  51 SW7       30.02F HX  93
WAYCROSS       MOSUNNY   92  73  53 NW5       30.03S HX 100
JESUP          NOT AVBL
BRUNSWICK      PTSUNNY   88  72  58 CALM      30.03S HX  94
SAINT SIMONS   MOSUNNY   88  72  58 W9        30.02S HX  94

$$

SCZ027-028-034-036>038-045-046-048>050-GAZ119-141-241700-
...LAKE AND SUPPLEMENTAL COASTAL OBSERVATIONS...

STATION/POSITION TIME  TEMP    WIND        PRES    WAVE   SWELL
                       AIR SEA DIR/SP/G            HT/PER HT/PER/DIR
                 (UTC) (F)     (DEG/KT/KT) (MB)    (FT/S) (FT/S/D)
UPR LAKE MARION  NOT AVBL
WINYAH BAY       1500   86     250/  8     1014.0S
LAKE MURRAY      1500   85     250/ 11/ 16 1013.5S
ACE BASIN NERRS  1500   87     250/  2     1016.0S
FORT PULASKI     1600   87     210/  5/  8 1016.0F
SAPELO ISLAND    1500   86     280/  7     1017.0S

$$

ANZ835-935-AMZ111-154-330-350-352-354-374-450-454-472-241700-
...C-MAN AND BUOY OBSERVATIONS...

STATION/POSITION TIME  TEMP    WIND        PRES    WAVE   SWELL
                       AIR SEA DIR/SP/G            HT/PER HT/PER/DIR
                 (UTC) (F)     (DEG/KT/KT) (MB)    (FT/S) (FT/S/D)
FOLLY BEACH CMAN 1500   87     270/  5/  8 1015.7S
BUOY 41004       1600   82 83  230/ 12/ 14 1014.6F   3/ 7   2/ 7
BUOY 41008       1600   83 85  250/ 10/ 12 1016.5S   2/ 5   2/150/ 5
5E ST. MARYS GA  1600      85                N/A     2/ 9
FRYING PAN BUOY  NOT AVBL
BUOY 41025       1600          VRB 17/ 19  1012.3F   4/ 5   2/160/ 8
CAPE LOOKOUT NC  1500   83     230/ 10/ 14 1013.4S
BUOY 41002       1550   81 82  240/ 21/ 25 1017.3R   6/ 6
BUOY 41010       1600   80 84  290/ 14/ 19 1018.9S   3/ 4   2/120/ 7
BUOY 41012       NOT AVBL
ST AUGUSTINE FL  1600   87     270/  7/  9 1018.2F
CAPERS NEARSHORE 1500   86     230/ 10/ 12   N/A
FRIPP NEARSHORE  NOT AVBL


$$


USA.gov is the U.S. government's official web portal to all federal, state and local government web resources and services.